GW5218 Weather Reports


time (UTC)temp
C
wind
direction
speed
KPH
gust
KPH
rain 1hr
cm
rain 24hr
cm
rain mn
cm
humidity
%
barometer
mb
20260504081515 12 132 0.0 0.0 0.00 0.00 0.00 85 1017.7
20260504050014 15 132 0.0 0.0 0.00 0.00 0.00 71 1019.1
20260504044532 16 132 0.0 1.6 0.00 0.00 0.00 68 1019.2
20260504043022 16 229 0.0 1.6 0.00 0.00 0.00 68 1019.4
20260504041525 15 243 0.0 1.6 0.00 0.00 0.00 69 1019.3
20260504040008 15 203 0.0 3.2 0.00 0.00 0.00 72 1019.2
20260504034514 15 137 0.0 1.6 0.00 0.00 0.00 77 1019.3
20260504033027 15 136 0.0 0.0 0.00 0.00 0.00 77 1019.3
20260504031523 15 136 0.0 0.0 0.00 0.00 0.00 74 1019.3
20260504030027 15 136 0.0 0.0 0.00 0.00 0.00 73 1019.2
20260504024516 15 136 0.0 1.6 0.00 0.00 0.00 72 1019.1
20260504023014 16 216 0.0 0.0 0.00 0.00 0.00 70 1019.0
20260504021533 16 215 0.0 0.0 0.00 0.00 0.00 68 1018.8
20260504020023 16 216 0.0 0.0 0.00 0.00 0.00 66 1018.6
20260504014525 16 216 0.0 0.0 0.00 0.00 0.00 67 1018.6
20260504013012 17 216 0.0 0.0 0.00 0.00 0.00 64 1018.4
20260504011516 17 216 0.0 0.0 0.00 0.00 0.00 63 1018.2
20260504010020 18 216 0.0 0.0 0.00 0.00 0.00 61 1018.3
20260504004528 19 216 0.0 0.0 0.00 0.00 0.00 58 1018.1
20260504003028 20 216 0.0 0.0 0.00 0.00 0.00 53 1018.1
20260504001513 21 216 0.0 3.2 0.00 0.00 0.00 51 1018.1
20260504000020 21 234 3.2 8.0 0.00 0.00 0.00 48 1018.1
20260503234525 21 219 0.0 6.4 0.00 0.00 0.00 47 1018.1
20260503233026 22 174 3.2 14.5 0.00 0.00 0.00 44 1018.3
20260503231528 23 229 1.6 8.0 0.00 0.00 0.00 45 1018.2
20260503230014 23 240 3.2 8.0 0.00 0.00 0.00 42 1018.3
20260503224519 24 219 4.8 9.7 0.00 0.00 0.00 39 1018.4
20260503223026 23 224 4.8 14.5 0.00 0.00 0.00 39 1018.4
20260503221533 23 249 3.2 9.7 0.00 0.00 0.00 39 1018.5
20260503220030 23 266 3.2 14.5 0.00 0.00 0.00 39 1018.6
20260503214518 23 212 4.8 9.7 0.00 0.00 0.00 39 1018.7
20260503213030 23 148 3.2 14.5 0.00 0.00 0.00 41 1018.9
20260503211525 23 229 4.8 11.3 0.00 0.00 0.00 39 1019.1
20260503210029 23 88 4.8 11.3 0.00 0.00 0.00 38 1019.4
20260503204529 24 250 0.0 11.3 0.00 0.00 0.00 39 1019.5
20260503203020 24 219 4.8 9.7 0.00 0.00 0.00 39 1019.8
20260503201523 23 196 4.8 16.1 0.00 0.00 0.00 43 1019.9
20260503200011 24 234 1.6 16.1 0.00 0.00 0.00 39 1020.1
20260503194510 24 220 4.8 11.3 0.00 0.00 0.00 40 1020.3
20260503193008 24 101 3.2 11.3 0.00 0.00 0.00 37 1020.7
20260503191510 26 316 0.0 6.4 0.00 0.00 0.00 35 1020.8
20260503190019 26 191 3.2 8.0 0.00 0.00 0.00 33 1020.9
20260503184517 26 321 1.6 4.8 0.00 0.00 0.00 33 1021.1
20260503183023 26 315 1.6 4.8 0.00 0.00 0.00 33 1021.2
20260503181526 25 326 1.6 9.7 0.00 0.00 0.00 34 1021.5
20260503180012 25 175 1.6 4.8 0.00 0.00 0.00 36 1021.6
20260503174511 25 288 0.0 4.8 0.00 0.00 0.00 34 1021.9
20260503173036 25 314 0.0 8.0 0.00 0.00 0.00 37 1022.1
20260503171513 24 304 1.6 9.7 0.00 0.00 0.00 34 1022.4